Find Shiyan 25

NORAD ID: 57047 Int'l Des: 2023-087 Owner: DFHZ Country: CN operational
LEOCIRCULARRETROGRADESSO

現在のビュー

3D地球を読み込み中...

Shiyan 25について

説明を読み込み中...

次回通過

Passes for default location (London). Set your location on the main map for personalized predictions.

高度履歴

Loading altitude history...

軌道要素

1 57047U 23087A 26151.53701002 -.00020417 21415-5 -37068-4 0 9998
2 57047 96.8002 213.6360 0005794 206.2803 153.8184 16.00876683172136
Epoch: May 31, 2026 • Age: 9 hours

現在のステータス

高度 299.0 km
速度 7.73 km/s
衛星直下点 -83.13°S, 81.79°E
打ち上げ日 Jun 20, 2023
運用期間 2.9 years
タイプ other

技術仕様

分類 Payload
質量 100.00 kg
乾燥質量 100.00 kg
総質量 100.00 kg
長さ 1.00 m
直径 0.50 m
スパン 2.00 m
形状 Box + 2 pan
製造者 DFHZ
フェーズステータス In Orbit
所有者/国 DFHZ/CN

Most Searched